Погода в Анди

Россия / Республика Дагестан     42°47′05″N   46°15′45″E
темп.,
°C
ветер,
м/с
пор.,
м/с
влажн.,
%
обл.,
%
осадки,
мм/ч
давл.,
гПа
погр.,
м
25 июня, сб
сб2500:00+11ю118931 0.3 101119
03:00+10з118540 0.3 101110
06:00+13ююв01755 0.0 101179
09:00+17в22641 0.1 1010554
12:00+20св226224 1.3 10081084
15:00+19ссв326993 3.8 1009818
18:00+15ссз338699 2.5 1010182
21:00+13ююз119099 3.0 101220
26 июня, вс
вс2600:00+12ю1191100 0.0 101147
03:00+11ю1293100 3.2 101136
06:00+13всв1180100 0.0 101081
09:00+15в1272100 0.2 1009414
12:00+18ссв116899 0.6 1008697
15:00+18ссв2276100 3.0 1008772
18:00+14ссв229089 8.1 101099
21:00+13св1190100 9.6 101215
27 июня, пн
пн2700:00+12юв1190100 0.1 101210
03:00+11зюз01920 0.1 101210
06:00+13сз118269 0.0 101287
09:00+18всв11666 0.0 1011638
12:00+20с336733 0.2 10111084
15:00+17с338381 2.4 1013575
18:00+17св128156 0.6 1013488
21:00+14всв1191100 1.0 101429
28 июня, вт
вт2800:00+13всв1191100 0.1 101311
03:00+13з228698 0.3 101319
06:00+14с11810 0.0 101290
09:00+18с116610 0.0 1010715
12:00+20с326235 0.0 10101145
15:00+18с336471 1.0 1012888
18:00+16сз2374100 0.7 1013215
21:00+13ссз2283100 1.1 101539
29 июня, ср
ср2900:00+12с1181100 0.3 101511
03:00+11в01841 0.3 101510
06:00+13св01785 0.0 1015101
09:00+16в116645 0.0 10141010
12:00+17ссв3263100 0.1 10141214
15:00+16с1167100 0.1 1014639
18:00+15в1175100 0.1 1014193
21:00+13св1186100 0.4 101517